Theta_e
294 294 294 294 295 295 297 297 298 298 297 298 299 299 300 302 302 301 303 304 305 306 304 304 302 300 299 297 296 296 295 294 294 295 295 296 297 298 300 300 302 302 303 304 304 303 304 304 304 304 304 304 303 302 303 303 303 304 304 305 304 303 301 301 301 302 304 303 304 306 306 307 305 303 302 302 304 304 302 301 302 303 303 302 302
294 294 293 294 295 295 296 296 296 297 296 297 298 298 300 301 300 301 302 302 302 303 302 301 300 299 297 295 295 295 295 294 293 294 295 295 296 296 297 298 299 300 300 302 302 303 302 302 302 303 303 302 302 302 302 301 302 302 303 304 304 302 300 300 300 301 300 298 299 300 304 306 305 301 300 303 304 303 301 303 302 301 300 301 302
293 293 293 293 294 294 295 295 295 296 296 297 298 298 299 299 299 300 300 301 301 301 301 299 299 298 297 295 294 293 294 294 294 294 295 294 294 295 295 296 296 297 298 298 299 300 300 300 300 301 302 302 301 300 301 300 301 301 301 301 301 302 301 301 300 300 297 298 301 300 299 298 302 300 302 302 301 300 302 303 301 301 301 302 301
292 292 292 292 293 293 294 293 294 295 296 296 297 297 298 299 299 300 300 300 299 298 297 297 296 296 296 295 295 294 293 294 294 294 294 294 293 293 294 294 295 295 295 296 296 296 297 297 298 298 299 300 300 299 298 298 299 299 300 299 300 299 299 299 300 299 298 297 295 296 297 297 297 298 296 300 300 302 303 300 300 301 301 300 301
291 291 292 292 292 292 292 292 293 293 294 294 295 296 296 298 298 299 299 299 298 297 297 296 295 295 295 295 295 294 295 294 293 291 292 292 292 292 292 293 293 293 294 294 294 294 295 295 295 295 295 296 297 296 296 296 297 298 298 298 298 298 298 298 299 299 299 299 297 296 296 296 293 294 295 299 300 300 300 300 301 300 299 299 299
291 290 290 291 291 292 292 292 292 293 292 293 294 295 296 297 297 298 298 298 298 298 299 299 297 296 296 295 293 292 290 290 289 289 290 290 290 292 292 293 293 293 293 293 293 293 293 294 294 293 293 293 294 294 294 293 294 294 295 296 296 298 298 297 296 299 299 298 298 297 296 293 291 293 295 293 299 301 299 300 300 299 299 298 299
290 290 290 291 291 291 291 291 292 291 291 292 293 293 294 295 296 296 296 295 296 296 296 296 295 295 294 293 292 290 289 289 290 291 290 291 291 290 291 292 292 292 292 292 292 292 293 293 293 293 293 293 293 293 292 292 293 294 294 294 293 295 296 293 293 295 298 297 298 298 297 296 296 293 291 292 291 296 298 298 298 298 297 297 298
290 290 290 290 290 290 290 290 290 290 291 291 292 292 293 293 294 293 293 293 294 294 294 295 294 293 293 292 291 290 289 289 289 290 291 291 290 290 290 290 291 291 291 292 292 292 292 292 292 292 291 291 291 291 291 292 292 293 293 293 292 292 293 291 291 292 290 291 294 294 295 296 297 296 294 291 290 288 290 295 297 296 295 296 296
290 290 289 289 289 289 289 289 289 290 290 291 291 291 292 292 292 292 292 292 292 293 293 293 293 292 292 291 290 290 290 290 290 291 290 291 290 290 290 290 290 291 291 291 291 291 291 291 291 291 291 290 290 291 291 291 291 291 291 291 291 291 291 291 290 289 290 289 289 290 291 292 294 295 294 293 289 287 287 288 288 292 293 294 293
289 289 289 289 289 288 288 289 289 289 289 290 290 291 292 292 291 291 291 291 292 292 292 292 292 292 291 291 290 290 290 290 291 290 290 291 290 290 290 290 290 290 290 290 290 290 290 290 290 290 290 290 289 290 290 290 290 290 291 290 291 290 291 291 290 290 290 290 290 290 288 288 289 289 289 289 289 290 286 286 287 286 285 289 292
289 289 288 288 288 288 288 288 288 288 289 290 290 291 291 291 291 290 290 291 291 291 292 292 292 292 291 291 291 290 291 291 290 290 290 290 289 289 289 289 290 289 289 289 290 290 290 290 289 289 289 289 289 289 289 289 289 290 290 291 290 289 289 290 290 290 290 290 290 289 288 288 287 286 286 287 287 286 285 285 286 286 286 286 290
289 288 288 287 287 287 287 287 287 288 288 289 290 290 291 291 290 290 290 290 291 291 291 291 291 292 292 292 291 291 291 290 290 289 289 289 289 289 289 289 289 289 289 288 289 289 289 289 289 289 288 288 288 288 288 288 289 289 289 289 289 289 289 289 289 288 289 289 289 289 289 290 289 288 288 288 287 286 286 285 285 286 286 287 289
288 288 288 287 287 287 287 287 287 287 288 288 289 290 290 290 290 289 289 290 291 291 291 291 291 291 291 291 291 291 291 290 290 289 290 289 289 289 288 288 288 288 287 287 288 288 288 288 287 287 287 287 287 287 287 288 288 288 287 288 288 287 287 288 287 287 288 287 287 288 289 288 288 289 289 288 289 288 287 284 286 287 284 285 287
289 289 288 288 288 287 287 287 287 287 287 288 288 289 290 290 290 289 289 290 291 291 291 291 291 291 291 291 291 291 290 290 289 289 289 289 289 288 288 288 287 287 287 286 287 287 287 287 287 287 287 287 287 287 287 287 287 287 287 286 287 287 287 287 287 287 287 287 287 287 287 287 288 288 288 288 287 286 285 285 284 285 285 284 286
289 288 288 288 287 287 287 287 287 287 287 288 288 289 290 289 289 289 289 290 290 290 290 290 290 290 291 291 290 290 290 289 289 290 289 289 289 288 288 288 287 287 286 287 287 287 287 287 286 286 286 286 286 286 287 286 286 287 286 286 286 286 286 286 286 286 286 286 286 286 286 287 287 287 287 287 287 287 286 285 284 282 282 284 283
288 288 288 288 287 287 287 287 287 287 287 288 288 289 290 289 289 289 289 289 290 290 290 290 290 290 290 290 290 290 289 289 289 289 289 289 288 288 287 287 287 287 287 286 286 286 286 286 286 285 286 286 285 285 285 285 285 285 285 285 285 286 285 285 285 285 285 285 285 286 285 285 286 286 287 286 287 287 286 286 285 284 281 279 282
289 288 288 287 287 287 287 287 287 287 287 288 288 289 289 289 289 289 289 289 289 290 289 290 290 289 289 290 290 290 290 289 288 288 288 288 288 288 287 287 287 286 286 286 285 285 285 285 285 284 284 285 284 284 284 284 284 284 284 284 284 284 284 284 284 284 284 285 285 285 284 285 285 286 286 286 286 286 286 286 286 284 284 281 279
289 289 289 288 287 287 287 287 287 287 287 288 288 289 289 290 289 288 288 288 289 289 289 289 289 289 289 289 289 289 289 288 288 288 288 287 287 287 287 286 285 285 285 285 285 284 284 284 284 284 284 284 283 283 283 283 283 284 283 283 283 283 283 284 284 284 284 284 284 284 284 284 285 285 285 285 285 285 285 285 285 286 285 282 281
289 288 288 288 287 287 287 287 287 288 288 288 288 288 289 289 289 289 288 289 289 289 289 290 290 290 289 289 288 288 288 288 287 287 287 286 286 286 285 285 285 284 284 284 284 283 283 283 283 283 283 283 283 282 282 282 283 282 283 283 283 282 282 282 283 283 283 283 282 282 283 283 284 284 284 284 284 284 284 285 284 285 284 284 283
289 288 288 288 288 287 287 287 287 287 287 288 288 288 288 289 289 289 289 289 289 289 289 289 289 289 288 288 288 288 287 287 287 287 286 285 285 285 284 284 283 283 283 283 283 282 282 282 282 282 281 282 281 281 281 281 281 281 281 281 281 281 281 281 282 282 282 282 282 281 282 282 282 282 282 283 283 283 284 283 283 283 283 283 283
289 289 288 288 288 287 288 288 287 287 288 288 288 288 288 288 288 289 288 288 288 289 289 289 288 288 287 287 286 286 286 286 286 285 284 284 283 283 283 283 283 282 282 282 281 281 281 281 281 281 280 280 280 280 280 280 280 280 280 280 280 280 279 280 280 280 281 281 281 280 281 281 282 281 281 282 282 282 282 282 282 282 282 283 282
290 289 289 288 288 288 288 288 287 287 287 286 288 288 288 288 288 289 288 288 288 288 288 287 287 287 286 286 285 285 285 285 284 283 283 283 283 282 282 282 281 281 281 280 280 280 280 280 280 279 279 279 279 279 279 279 279 278 278 279 279 278 278 278 279 279 279 280 280 279 280 280 281 280 280 280 280 281 281 280 281 281 281 281 282
290 289 289 288 288 288 288 287 286 286 287 286 287 287 288 288 288 288 288 288 288 288 288 287 286 286 285 285 284 284 284 283 283 283 282 282 281 281 281 280 280 280 280 279 279 279 279 279 278 278 278 278 278 278 278 277 277 277 277 277 278 277 277 277 277 278 278 279 278 279 279 279 280 279 279 279 279 279 280 279 279 280 279 280 281
290 289 289 289 288 288 287 286 286 286 286 286 287 287 288 288 288 288 287 288 288 288 287 286 285 285 284 283 283 283 283 283 282 282 281 281 280 280 280 279 279 279 278 278 278 278 278 278 277 277 277 277 276 276 276 277 276 276 276 276 276 277 277 277 277 277 277 277 277 277 278 278 278 277 277 277 278 279 278 278 278 278 278 278 279
288 288 288 288 288 287 287 287 286 286 286 287 287 287 287 287 288 287 287 288 288 287 285 284 283 282 283 283 282 283 282 282 281 281 280 279 279 279 278 278 278 278 277 277 277 277 277 277 276 276 276 276 275 275 275 275 275 275 275 275 276 276 276 277 277 277 277 277 277 276 276 277 276 276 276 276 277 276 277 277 277 277 277 278 279
289 288 288 287 287 288 287 286 286 286 286 287 287 287 287 287 287 287 287 287 286 285 284 283 282 282 282 282 282 282 281 281 280 279 279 278 278 277 277 277 276 276 276 276 276 276 276 275 275 275 275 274 275 274 274 274 274 275 275 275 276 276 276 276 277 276 276 276 276 276 276 276 276 275 275 276 276 276 276 276 276 277 277 278 277
289 289 289 288 287 287 287 287 286 286 287 287 287 286 286 286 286 287 287 286 285 284 284 284 284 283 283 282 282 281 280 280 279 279 278 277 276 276 276 275 275 275 275 275 275 274 274 274 274 274 273 273 273 273 274 274 274 274 275 276 276 276 276 276 276 276 276 276 276 276 276 276 275 275 275 275 275 275 275 275 276 276 276 276 276
290 289 288 287 287 287 287 287 286 286 287 286 286 286 286 286 286 286 286 286 285 284 284 284 284 283 283 282 281 280 280 279 278 277 276 276 275 275 275 275 274 274 274 273 273 273 273 273 273 273 273 273 273 273 273 273 274 275 275 276 276 276 276 276 276 276 276 276 276 275 275 275 275 275 275 275 274 274 275 274 275 275 275 275 274
289 289 288 288 287 287 287 287 287 286 285 285 285 286 286 286 286 285 285 285 285 285 285 284 284 283 282 281 279 279 279 278 277 276 275 275 274 274 274 274 273 273 273 273 272 272 272 272 272 272 272 272 272 272 272 272 273 274 275 275 275 275 275 275 275 275 275 275 275 275 275 275 275 275 275 275 275 275 274 273 274 274 273 273 273
289 289 289 289 288 288 287 287 286 285 285 285 285 285 286 285 285 285 285 285 285 285 284 284 283 282 281 280 279 278 277 276 276 275 274 274 273 273 273 272 272 272 272 272 272 272 272 271 271 271 271 271 271 272 271 271 274 274 275 274 274 274 275 274 274 274 274 275 274 275 275 275 274 274 274 275 275 275 275 274 273 273 273 272 272
290 290 290 289 288 288 287 287 286 285 285 285 285 285 286 285 285 283 283 284 285 284 284 283 282 280 279 278 278 277 276 275 275 274 273 273 272 272 272 271 271 271 271 270 271 271 271 271 270 270 270 270 271 271 271 273 274 275 274 274 274 274 274 274 273 273 273 273 274 274 274 274 273 273 273 273 274 274 275 275 275 275 275 273 271
290 290 290 289 288 288 287 286 286 286 286 285 285 285 284 284 284 284 284 284 284 283 282 282 280 279 278 277 276 276 275 274 273 272 271 271 270 270 270 270 270 270 270 270 270 270 270 270 270 270 270 270 270 270 272 273 274 274 275 274 274 274 273 273 273 273 273 273 273 272 273 273 272 272 272 272 273 273 274 274 274 274 274 275 275
290 289 289 289 288 288 288 287 286 286 285 285 286 285 284 285 284 284 283 282 282 282 281 280 278 277 276 276 276 275 274 272 272 271 270 269 269 269 269 268 268 269 269 269 269 269 269 269 269 268 268 269 269 270 271 272 273 274 275 275 273 273 273 272 273 273 272 272 271 271 271 271 271 272 272 272 272 272 273 273 273 273 274 274 275
290 290 289 290 290 290 289 289 288 287 287 286 286 285 285 285 284 283 281 281 281 280 280 278 277 276 275 275 274 273 272 271 270 269 269 269 268 268 268 268 268 268 268 268 268 267 268 268 268 267 267 268 268 269 270 272 273 273 274 274 273 273 272 272 272 272 271 271 271 270 270 270 271 271 271 271 271 272 272 271 271 272 272 273 275
288 288 289 290 290 290 290 289 289 288 287 286 285 286 285 283 282 281 281 280 280 279 278 277 276 275 274 274 273 272 271 270 269 268 268 268 268 268 267 268 268 268 267 267 267 267 266 266 266 266 266 266 267 269 270 271 272 273 274 274 272 272 271 271 271 271 271 270 270 270 270 270 270 270 271 272 271 271 271 271 271 271 272 273 274
288 288 289 289 289 289 289 288 289 287 286 286 286 285 284 282 281 280 280 280 279 278 277 276 275 274 273 273 272 271 270 269 269 268 267 268 267 267 267 267 267 267 267 266 266 266 265 265 265 265 265 265 266 268 269 270 271 272 273 271 271 270 270 270 270 270 270 271 271 270 270 270 270 270 272 274 274 273 272 271 271 272 272 273 274
288 288 288 289 289 288 288 288 287 287 286 285 285 283 282 280 279 279 278 278 277 277 276 275 275 274 273 273 272 271 270 269 269 268 267 267 267 266 266 267 266 266 266 266 265 265 265 264 263 263 263 264 265 266 268 269 270 272 271 270 270 269 269 269 269 270 270 270 270 270 270 270 270 271 273 275 275 275 272 272 272 272 273 274 274
287 286 286 286 286 286 286 286 286 285 285 285 282 282 280 278 278 277 277 276 276 277 276 275 275 274 273 272 272 270 269 268 268 267 267 267 267 267 266 265 265 265 265 265 264 264 264 264 263 263 263 263 263 265 268 269 270 271 271 269 269 269 268 268 269 270 270 270 271 271 272 271 271 271 274 275 276 275 273 273 273 273 272 272 273
285 285 284 284 284 285 285 285 285 283 284 282 281 280 279 278 277 276 276 276 276 277 276 275 274 273 272 271 270 269 269 267 267 267 265 265 265 265 265 264 264 264 264 264 264 263 263 263 263 263 263 263 263 264 266 268 269 270 270 270 269 269 268 268 268 268 269 270 270 272 272 273 273 273 276 277 277 276 274 273 273 273 272 272 273
283 283 285 284 283 282 282 283 283 283 282 280 279 279 278 278 276 276 275 276 276 277 276 275 274 272 271 269 268 267 267 266 266 265 264 264 265 264 263 264 264 264 264 264 263 263 261 262 262 262 262 263 263 263 264 267 269 270 271 270 270 269 268 268 268 268 268 269 270 271 272 274 275 276 276 277 277 278 275 274 274 273 273 273 275
282 282 283 282 282 283 282 283 283 282 279 279 278 278 278 277 276 275 275 276 277 277 275 273 272 270 269 268 267 266 265 265 265 264 264 263 264 264 263 262 262 263 262 262 261 261 261 261 262 263 263 263 263 263 263 267 269 270 271 271 270 269 269 269 269 269 269 269 270 271 272 274 276 276 276 277 277 278 278 275 275 274 274 276 277
281 281 282 282 281 282 282 281 282 279 277 277 278 278 278 277 275 275 276 278 276 274 273 271 270 269 267 266 265 265 264 263 262 262 262 262 262 262 262 261 262 262 260 259 260 260 261 261 262 262 262 263 263 264 264 266 269 270 271 272 270 270 271 271 270 270 270 270 271 271 272 274 275 276 276 277 278 278 278 276 276 277 278 278 275
280 280 281 281 281 281 281 281 279 277 276 276 277 277 277 276 274 276 277 276 273 272 271 270 269 267 265 264 263 262 262 261 260 260 260 261 261 260 259 259 259 259 259 259 259 260 260 261 262 263 263 263 263 263 266 266 269 270 271 272 273 272 274 272 270 269 270 271 272 272 272 274 275 276 278 278 278 278 276 275 277 277 277 277 275
282 282 281 280 281 281 280 280 277 275 275 276 276 277 276 275 275 278 274 272 271 270 269 268 266 265 263 262 261 260 260 260 260 260 260 260 260 259 259 260 260 260 261 261 262 262 261 261 261 262 263 264 264 265 267 268 269 271 272 273 273 273 274 272 272 271 271 271 271 272 273 276 277 277 277 276 276 275 274 276 276 276 275 274 271
282 281 280 279 281 280 280 278 276 274 274 274 276 277 275 274 277 275 271 270 269 267 266 265 264 263 262 261 260 260 260 259 259 260 260 260 259 258 260 261 259 260 261 261 261 261 261 261 261 261 263 264 265 266 267 268 270 270 271 272 273 274 274 275 272 272 272 272 274 276 276 276 275 275 275 274 272 272 273 273 273 273 271 269 268
281 280 278 278 279 280 279 277 275 273 273 273 274 276 275 276 276 272 271 268 266 265 265 264 263 262 261 260 259 258 258 258 258 259 260 261 261 260 261 261 261 261 260 260 260 261 260 261 261 262 263 264 265 266 267 268 269 269 270 271 273 274 274 274 274 273 274 274 274 274 274 273 272 271 269 268 268 268 271 271 270 269 267 267 267
279 280 278 277 277 277 277 276 275 273 272 272 272 274 276 276 271 270 268 266 265 265 264 263 261 261 260 259 260 261 260 258 258 259 260 260 260 260 260 260 261 261 260 260 260 260 261 261 262 263 263 265 265 266 267 268 268 268 268 269 270 271 273 273 272 271 271 270 270 269 269 270 269 269 269 268 268 268 266 266 267 267 266 266 266
280 281 278 277 277 277 277 276 276 275 272 271 271 271 273 271 269 268 266 265 264 264 264 262 261 261 261 260 261 260 260 261 260 260 261 260 260 260 260 260 261 261 261 261 261 261 261 262 262 263 264 264 265 266 267 267 267 268 270 271 271 272 271 271 269 270 268 266 266 267 266 265 265 265 265 265 265 265 265 265 265 265 265 266 266
280 278 276 277 277 276 277 277 277 277 273 270 270 270 271 268 268 266 264 264 264 263 263 262 261 261 261 260 261 260 261 262 261 259 260 261 261 261 260 260 260 260 261 261 261 261 262 262 263 263 263 263 265 266 266 269 270 272 271 271 271 271 271 270 270 271 266 265 265 264 264 263 263 263 263 263 264 264 264 264 264 264 265 265 265
280 279 276 276 277 277 277 277 278 277 273 271 270 270 268 267 266 264 264 264 264 263 262 261 260 261 261 260 260 260 260 260 260 261 259 259 260 262 261 260 260 263 265 267 266 262 263 263 263 265 266 265 265 266 270 272 272 272 273 274 273 273 272 270 271 270 266 263 263 262 262 262 262 262 262 262 262 262 263 263 264 265 264 264 264
278 276 275 274 276 275 276 276 277 275 272 271 270 269 266 266 265 264 264 265 263 263 263 262 259 261 261 261 261 260 260 260 260 260 260 260 260 261 265 266 266 266 267 268 269 270 270 270 268 266 267 270 270 271 271 271 272 272 273 273 272 272 271 270 270 266 263 262 261 261 261 262 262 262 261 262 262 262 262 262 262 263 264 264 264
Wind_Speed
3 3 5 5 5 5 4 5 5 6 8 8 8 9 9 7 7 9 6 6 6 6 6 6 8 8 9 10 10 7 8 8 10 9 9 8 9 10 10 9 9 9 9 9 9 10 9 8 8 9 9 9 9 9 8 8 7 6 4 5 7 7 8 8 9 8 5 7 7 6 6 3 2 1 2 3 4 4 2 2 3 3 4 4 4
2 3 4 5 4 5 5 5 6 8 8 8 8 7 7 8 9 7 6 7 8 8 7 9 8 7 8 8 8 7 7 8 9 8 8 8 10 10 10 10 10 10 9 10 10 9 9 9 9 8 8 8 8 8 9 8 9 9 7 5 7 7 7 9 9 8 6 8 9 8 2 4 4 4 4 7 7 4 2 3 5 5 6 5 5
3 4 4 4 5 5 5 6 6 7 6 7 6 6 7 8 7 7 7 8 8 8 9 9 8 9 10 8 9 9 9 9 9 8 8 10 10 10 10 10 10 10 10 9 8 9 9 8 8 7 8 7 7 9 9 10 9 10 10 7 5 6 6 7 9 9 6 8 6 5 5 7 4 3 7 11 6 4 3 4 5 5 6 6 5
3 3 3 4 4 5 5 6 6 5 5 6 6 6 6 7 7 7 8 9 9 9 11 11 12 12 11 10 10 10 9 9 10 9 10 11 11 10 10 10 10 10 11 10 9 10 9 9 8 8 8 8 8 9 10 10 10 10 9 10 7 6 7 7 9 8 7 8 7 5 6 4 4 4 12 7 2 5 7 6 5 7 8 8 7
3 3 3 3 5 5 6 5 5 5 6 5 5 5 4 6 7 8 9 9 9 10 11 11 11 12 10 11 9 10 9 8 9 10 9 10 10 11 10 11 11 11 11 11 10 11 10 9 9 9 9 9 9 9 10 10 9 9 9 9 10 7 7 6 7 8 10 8 6 5 3 4 4 8 12 2 2 8 5 5 7 7 7 8 8
2 3 3 3 4 5 5 5 6 5 5 5 4 4 5 6 7 8 7 7 7 6 5 6 7 8 8 8 8 8 9 9 9 8 8 9 9 8 10 11 11 11 11 11 11 10 11 10 10 10 10 9 9 9 9 9 10 10 9 8 9 9 6 7 7 6 7 9 8 6 3 3 7 8 7 5 8 2 2 4 6 6 7 9 8
2 3 3 4 4 5 5 5 5 5 4 3 3 5 6 6 7 7 6 6 5 5 5 6 7 7 9 10 9 9 10 8 7 7 7 7 7 10 9 10 11 11 11 11 11 11 10 10 10 10 9 9 9 9 9 9 8 8 8 9 8 8 8 7 8 7 5 8 6 5 4 2 3 5 5 8 9 2 2 6 5 4 9 9 6
3 4 4 3 4 4 5 4 4 4 3 3 4 4 6 6 7 7 7 7 6 6 7 6 8 9 10 11 10 10 10 10 9 8 7 7 8 9 8 9 10 10 10 11 11 10 10 10 10 9 9 9 8 9 9 8 7 7 8 8 8 8 8 7 7 7 7 7 7 7 6 4 2 3 3 4 6 10 10 5 1 8 8 6 6
4 4 4 4 5 4 4 4 4 4 3 3 4 5 6 7 8 8 9 8 8 8 9 9 9 9 10 10 11 9 10 8 7 7 7 7 9 8 9 9 9 10 10 10 11 10 9 9 9 9 9 8 8 7 8 8 9 9 9 8 8 7 7 6 6 6 6 6 6 7 6 6 4 3 2 5 6 8 9 9 10 7 5 4 7
3 3 4 3 3 3 3 4 4 3 3 4 4 5 6 7 9 11 10 8 8 10 10 11 11 9 10 10 13 10 8 8 7 7 7 6 8 8 8 8 7 8 9 10 10 10 10 9 9 9 9 8 7 7 7 7 7 7 7 7 7 7 6 6 6 5 4 4 4 4 5 6 4 4 4 6 5 4 8 11 10 12 11 6 5
5 5 4 4 3 3 3 5 5 4 3 4 4 5 6 7 9 12 10 9 9 10 10 11 10 10 10 11 12 12 9 8 8 7 6 7 8 8 8 7 7 7 7 8 9 9 9 9 9 8 8 7 8 8 8 7 6 6 6 6 8 8 6 6 5 6 4 4 5 5 5 5 5 5 6 5 5 7 9 10 10 9 10 11 3
6 6 6 5 5 4 4 5 5 5 5 5 5 5 7 8 9 13 11 10 9 9 10 10 10 10 10 11 11 10 9 8 9 9 7 8 7 7 6 7 7 7 7 7 8 9 7 8 8 8 8 8 8 6 7 6 6 6 6 6 6 7 7 6 6 6 7 5 5 5 4 4 4 4 5 5 5 7 8 10 10 11 10 7 7
7 7 6 6 6 7 6 6 6 5 5 6 6 6 7 8 10 13 11 9 9 9 10 10 10 10 9 10 10 9 9 10 9 8 7 7 6 6 6 6 6 7 7 7 7 9 7 7 8 7 6 7 6 6 6 7 6 5 6 6 6 7 6 6 5 6 6 6 5 5 4 4 4 4 4 5 5 6 7 9 9 9 11 12 8
8 7 6 7 7 7 6 6 5 5 6 6 6 6 6 7 9 12 11 9 9 9 9 10 10 9 9 9 9 8 9 8 8 8 6 6 5 6 6 6 6 6 6 7 6 6 6 6 6 6 6 5 6 5 6 6 6 5 5 6 6 5 5 5 5 5 4 5 5 5 4 4 4 4 5 5 5 6 7 8 10 9 9 12 10
7 7 8 8 8 7 6 6 5 5 7 6 6 6 7 8 9 12 12 9 10 9 9 10 9 9 9 8 8 8 8 8 7 6 6 6 6 6 6 5 5 5 5 5 5 5 5 5 6 5 6 5 5 6 5 5 6 4 4 5 4 4 5 5 4 5 4 6 5 5 5 4 4 4 5 5 5 5 6 7 8 11 11 9 11
9 9 9 8 8 7 6 6 6 6 7 6 7 7 7 8 9 11 11 10 9 10 9 9 9 8 9 9 9 8 8 7 7 6 6 6 6 6 6 5 5 5 4 4 5 5 5 5 5 5 5 5 5 5 5 4 5 4 4 4 4 3 4 5 4 4 4 6 5 5 5 5 5 5 5 5 5 5 6 6 7 7 10 13 11
10 10 9 10 8 7 7 7 7 7 7 7 7 7 9 9 10 11 11 9 10 10 10 9 9 9 9 8 8 8 8 8 7 8 7 6 6 5 5 5 4 4 3 3 4 4 4 4 3 3 4 4 4 4 4 4 4 3 3 3 4 4 4 4 4 4 5 4 4 5 5 5 5 5 5 5 5 6 6 6 6 7 8 10 11
10 9 9 9 9 9 8 7 8 8 8 8 8 7 7 8 10 12 11 12 10 10 10 9 10 9 8 8 8 8 8 8 7 7 6 5 5 4 4 4 4 3 2 2 2 3 3 3 3 3 3 3 3 3 4 4 4 3 3 3 3 4 4 4 3 4 5 4 5 5 5 6 5 5 6 6 6 6 6 6 7 7 7 9 10
10 11 10 10 9 9 9 9 9 8 8 8 8 7 7 7 9 10 12 11 11 9 9 8 8 6 6 7 8 7 6 6 6 6 5 5 5 4 4 3 3 2 2 2 3 3 3 3 3 3 3 3 4 4 4 4 4 3 4 3 3 4 4 4 4 4 4 4 5 6 6 6 6 6 7 6 6 6 6 7 7 7 8 9 10
12 12 11 10 10 10 11 11 10 10 9 8 9 7 9 9 9 10 10 10 9 9 9 9 7 7 7 7 6 6 6 6 6 5 5 5 4 4 4 3 3 2 2 3 3 3 3 3 3 3 3 3 4 3 3 4 3 3 3 4 4 4 4 5 5 4 4 5 6 6 6 6 6 7 7 7 7 7 7 7 8 8 9 9 10
12 11 11 11 10 10 9 8 7 7 7 8 8 10 9 8 9 10 12 11 10 9 8 7 7 8 8 8 7 6 6 5 6 6 6 5 4 4 3 3 2 3 2 2 3 3 3 2 2 3 3 3 3 3 3 3 3 4 4 4 4 5 5 5 5 6 5 5 6 7 7 7 7 7 7 7 7 7 8 8 8 8 9 9 9
11 9 10 10 11 10 8 7 6 8 8 10 9 8 9 10 9 10 9 9 9 8 7 7 6 7 8 8 7 6 5 5 6 5 5 5 4 3 3 2 3 2 2 2 2 2 2 2 2 2 3 3 3 4 4 4 4 5 5 3 4 5 6 6 5 6 6 5 6 8 8 8 7 7 8 8 7 8 8 9 8 8 9 10 9
10 10 10 9 9 9 9 10 10 10 10 11 10 9 10 10 10 9 9 9 9 8 7 7 7 7 8 7 6 6 6 6 6 5 5 4 4 3 2 2 2 2 2 2 2 2 2 2 2 3 3 3 4 4 4 4 5 5 5 5 5 6 6 6 7 7 7 7 7 7 8 7 6 8 8 8 8 8 8 9 10 9 10 11 10
8 8 8 8 9 9 9 11 12 12 12 12 10 10 10 10 10 9 11 11 10 8 8 7 6 7 7 7 6 6 6 6 6 4 5 4 3 3 2 2 2 2 2 2 2 2 2 3 3 3 3 3 4 4 4 4 5 5 5 6 6 6 6 6 7 7 8 7 8 8 8 8 8 9 9 8 8 7 8 9 10 10 10 11 11
9 11 12 11 11 13 13 12 12 12 12 12 12 11 11 11 10 10 10 10 9 7 7 6 6 7 7 7 7 6 6 6 5 4 4 3 3 3 2 2 2 2 2 2 2 2 3 3 3 4 4 4 4 4 5 5 5 5 5 6 6 6 6 7 7 7 7 8 8 8 9 8 8 9 9 8 8 10 9 9 10 10 10 10 10
12 11 11 14 14 12 10 12 12 13 13 12 12 12 11 10 11 10 10 9 7 6 7 7 7 8 7 8 7 6 6 6 5 4 4 3 3 2 2 2 2 2 2 2 2 2 2 3 3 3 3 4 4 4 5 5 5 5 5 6 6 6 7 7 7 7 7 7 8 9 9 8 8 9 9 9 9 10 10 10 11 10 10 10 12
12 12 10 8 8 13 15 14 13 13 12 12 13 12 11 10 11 10 8 7 7 6 7 9 9 9 8 7 6 6 6 5 4 4 3 3 3 2 2 2 2 2 2 2 2 2 2 2 2 2 3 3 4 4 5 5 5 6 6 6 7 7 7 7 7 7 8 8 8 8 8 8 9 9 9 9 10 11 10 11 11 11 11 11 12
9 9 10 13 15 14 14 15 14 14 13 11 10 11 12 11 11 10 10 9 7 8 9 9 9 8 7 7 6 6 5 5 4 3 3 3 3 2 2 2 2 2 2 2 2 1 1 1 2 2 3 3 4 5 5 5 5 6 7 7 7 7 8 8 8 8 8 8 8 8 8 9 9 8 8 10 10 10 10 11 10 10 11 11 11
13 14 14 14 14 15 17 16 14 13 13 13 11 11 10 8 8 8 8 9 9 9 9 9 9 8 7 6 6 6 5 5 4 4 4 3 3 3 2 2 2 2 2 2 1 1 2 2 2 2 3 3 4 4 3 5 6 8 7 8 8 8 9 9 9 9 8 8 8 8 8 8 9 13 17 16 15 14 12 12 11 10 11 11 11
14 16 15 15 15 13 13 13 13 15 15 14 13 10 10 10 10 9 9 8 9 9 10 9 9 8 7 7 7 6 5 5 4 4 3 3 3 2 2 2 1 2 2 2 1 2 1 2 3 3 3 3 3 3 4 9 10 9 10 8 9 9 9 10 10 11 10 9 9 9 9 13 15 16 16 17 17 17 17 14 12 11 11 11 11
13 11 11 11 11 11 11 12 13 14 15 14 12 11 11 11 9 8 8 9 9 9 9 9 8 7 7 7 7 6 5 5 4 3 3 3 3 2 2 1 1 2 1 2 1 1 2 2 3 3 4 3 4 4 9 11 13 14 10 10 9 10 10 10 10 10 11 11 11 10 10 11 12 12 12 14 16 18 17 18 18 18 15 12 11
9 10 11 11 11 12 14 14 15 15 14 11 11 11 11 12 9 10 9 9 9 9 9 8 8 8 7 7 6 6 5 5 4 3 3 3 2 2 1 1 1 1 1 1 1 1 2 3 3 4 4 4 5 7 11 12 14 14 13 10 10 9 9 9 10 10 10 10 11 10 9 8 8 9 11 12 15 16 16 17 17 16 16 17 17
9 10 11 12 13 14 15 14 14 14 15 12 14 12 14 13 12 10 8 9 9 9 9 8 8 8 7 7 6 6 5 5 4 3 3 3 2 2 1 1 0 0 1 1 1 2 2 2 3 4 5 5 6 8 11 13 14 15 15 13 10 10 10 11 11 11 11 10 10 10 10 9 9 14 13 12 11 12 14 16 16 16 16 18 18
8 9 10 11 11 11 12 15 15 15 15 14 16 10 11 9 9 9 10 9 10 9 8 8 8 7 7 7 7 6 5 5 4 3 3 3 2 1 1 1 1 1 2 1 1 2 2 3 3 5 5 6 7 8 12 14 15 15 15 13 10 11 11 11 12 11 10 11 11 11 11 11 11 11 11 12 11 12 12 12 12 12 12 16 20
8 8 9 9 10 10 11 11 10 9 8 7 7 8 8 8 9 10 9 10 9 9 8 8 8 7 7 7 7 6 6 5 4 4 3 3 2 2 2 2 2 2 2 2 2 2 2 3 4 5 6 6 7 11 12 14 15 15 15 14 10 10 10 10 11 11 11 11 11 11 12 12 13 12 11 13 14 14 13 13 13 14 15 15 16
8 10 10 9 9 10 11 11 8 9 8 10 11 10 11 10 9 10 10 9 9 8 8 8 8 8 8 8 7 7 6 5 5 4 4 3 3 3 3 2 2 2 2 2 2 2 3 4 4 5 6 8 7 11 12 13 15 14 16 10 8 9 10 10 11 10 10 10 10 11 12 13 13 14 16 21 19 16 15 14 15 15 15 15 15
6 5 5 5 6 7 7 6 8 9 10 11 9 9 9 9 9 8 8 9 9 9 9 9 8 9 8 8 8 7 6 6 5 5 4 4 4 4 3 3 3 2 2 2 2 3 3 3 5 5 7 8 7 9 11 13 14 15 12 8 8 8 9 10 10 10 10 11 10 11 12 13 15 15 19 22 22 21 15 15 15 14 12 13 14
4 3 2 2 3 3 5 7 8 9 10 8 9 10 10 10 9 9 9 9 9 10 9 10 9 8 9 8 7 7 7 6 5 5 4 4 3 2 3 3 2 2 2 2 2 3 3 3 5 6 6 8 8 9 13 14 15 15 12 9 8 8 9 9 10 10 9 10 12 17 17 16 16 16 21 24 24 21 15 15 15 16 16 15 15
6 6 6 7 7 7 7 7 8 10 9 10 10 11 10 10 10 10 10 10 11 11 10 10 10 9 8 8 6 6 6 6 5 5 4 4 4 4 2 2 2 2 2 2 2 3 3 4 5 6 9 10 9 9 11 13 14 14 11 8 8 8 9 9 9 10 10 10 12 15 20 19 18 19 25 24 25 21 16 15 15 15 15 14 12
4 4 5 7 7 8 7 9 11 11 10 11 10 10 11 12 10 10 11 11 13 12 10 8 8 8 7 6 6 7 6 6 6 5 4 4 3 3 3 2 1 2 2 2 2 3 4 4 5 6 7 7 8 7 8 13 14 14 14 9 8 8 9 10 10 10 11 11 12 13 15 19 21 21 22 24 23 24 18 16 15 14 14 15 13
6 6 6 6 7 9 10 12 9 10 10 10 10 9 10 10 9 9 11 14 11 8 8 8 8 7 7 7 6 6 6 5 5 5 4 4 3 3 2 2 2 2 2 3 3 4 4 5 5 6 6 7 6 8 8 12 14 14 15 12 8 9 9 10 10 10 10 10 9 10 10 16 22 23 22 23 25 27 27 20 15 14 13 15 16
3 6 7 5 6 6 4 4 6 8 9 9 9 13 10 9 8 11 17 9 8 8 8 8 7 7 7 6 6 5 5 5 5 4 4 3 3 2 2 2 2 1 2 4 4 4 4 5 5 6 7 7 7 10 8 11 13 14 14 15 10 9 10 10 11 10 11 12 13 13 12 15 22 24 25 26 28 29 28 14 11 16 22 24 18
5 5 6 6 6 7 8 8 6 7 8 8 12 14 11 10 11 18 9 7 8 8 8 7 7 7 7 7 6 7 6 4 5 4 4 3 3 2 2 2 2 2 3 4 4 4 4 4 4 5 5 6 6 7 11 10 12 14 14 14 16 13 16 12 11 11 12 12 11 12 14 21 24 25 27 27 23 22 16 12 21 24 25 27 22
5 4 8 7 7 6 6 5 5 6 7 8 13 13 12 13 19 9 8 7 6 7 8 10 9 7 7 6 6 6 5 5 5 5 4 3 3 2 1 2 2 2 3 3 3 3 3 4 4 4 4 5 5 6 8 12 11 14 14 14 14 16 17 12 11 11 11 12 12 12 14 24 25 24 22 21 22 21 15 23 25 27 26 21 11
8 8 6 6 9 8 7 5 6 7 8 9 9 13 14 16 12 9 11 12 13 12 13 13 11 8 7 6 6 5 5 4 4 5 4 3 3 3 2 2 3 3 3 3 3 2 3 4 4 4 5 5 6 7 7 9 13 11 12 13 15 16 17 17 12 10 11 11 16 22 24 23 22 23 25 23 18 19 21 21 21 20 16 7 7
2 2 7 8 5 3 5 9 7 8 9 8 9 10 15 17 7 11 8 13 14 14 13 13 10 7 7 7 7 5 4 4 5 4 4 3 3 3 3 2 2 3 2 3 3 2 3 4 4 4 5 7 7 7 8 7 7 9 10 14 17 17 17 16 15 11 15 19 20 21 22 21 19 18 14 11 11 11 17 17 15 14 8 7 7
8 10 8 6 8 8 10 11 12 10 9 8 10 11 10 3 9 7 9 14 12 14 13 10 8 7 6 7 8 6 6 5 4 4 3 3 3 3 3 3 3 3 3 3 3 3 3 3 5 6 7 7 8 8 7 6 6 8 9 10 11 10 13 12 7 7 11 9 11 12 13 16 12 15 14 13 11 12 10 9 8 8 7 7 7
9 7 7 7 9 12 12 12 14 11 9 9 10 10 10 6 8 9 14 13 12 14 11 9 8 7 7 7 6 7 7 5 5 5 4 4 4 4 4 5 4 4 3 3 3 3 4 4 6 6 7 7 7 7 6 7 8 8 8 9 9 8 8 7 6 9 5 6 8 9 9 5 6 7 7 6 7 7 8 9 9 9 8 8 9
8 8 10 11 12 13 13 13 14 11 12 11 14 12 10 10 9 12 15 16 11 13 10 11 7 6 6 6 5 6 5 5 4 4 4 4 4 5 5 4 5 4 4 4 4 5 5 6 6 7 7 7 7 7 7 9 11 14 12 10 9 8 8 6 9 13 6 6 4 5 4 5 6 8 8 8 9 9 9 9 10 9 8 8 8
8 4 8 10 10 12 13 13 12 7 9 13 12 11 10 7 10 13 15 15 12 10 9 7 6 6 6 6 5 5 4 4 4 4 4 3 7 10 7 5 4 8 14 15 12 8 8 7 7 7 6 6 7 8 14 18 17 16 16 17 14 14 12 10 13 13 6 4 4 4 4 5 7 8 8 8 9 9 9 9 9 10 9 8 9
6 7 8 10 11 11 10 11 9 5 9 11 13 11 10 8 10 10 13 13 13 9 7 6 7 7 7 6 6 5 5 4 4 3 3 3 2 5 11 14 12 10 11 12 13 14 14 12 8 6 7 13 14 15 16 15 16 16 16 15 14 12 12 13 12 7 4 3 4 5 5 6 6 7 7 8 8 8 9 9 10 10 9 9 9
Wind_Direction
28 30 32 24 22 19 21 27 39 49 37 36 43 42 44 54 60 53 36 29 51 67 61 71 79 79 68 68 73 66 64 62 60 54 52 47 43 45 45 44 41 41 39 44 53 59 59 56 57 58 59 58 59 57 53 46 36 30 42 52 34 37 38 19 7 331 314 337 330 312 302 288 294 40 82 38 2 12 24 44 21 16 32 23 14
78 70 46 41 33 29 37 37 31 49 35 40 46 45 53 57 61 56 49 56 55 59 69 64 55 63 81 71 76 66 64 62 64 56 55 51 49 47 46 44 44 43 36 41 47 52 57 57 54 53 57 61 63 60 56 52 44 39 26 51 50 44 48 21 15 354 13 346 328 333 329 346 80 79 61 354 342 13 53 39 18 40 33 11 358
95 76 56 54 44 40 47 44 43 45 45 46 46 57 59 63 65 66 62 66 61 65 72 72 72 70 78 82 82 81 67 69 72 69 64 62 55 51 50 48 46 46 42 40 43 43 51 55 53 52 50 52 59 54 48 45 38 38 34 28 34 54 54 38 28 25 3 339 314 316 2 348 132 114 8 345 6 61 16 19 39 39 23 11 357
109 73 70 57 52 53 49 46 40 44 47 49 43 54 60 67 71 78 76 74 77 76 84 82 82 84 82 83 80 80 85 79 75 67 63 62 57 53 50 48 48 49 43 44 46 44 43 47 48 46 46 44 49 51 43 40 35 32 31 30 19 42 37 44 40 37 28 2 10 344 316 321 336 8 346 333 83 16 1 32 40 15 15 13 359
132 123 90 71 66 51 50 43 44 51 48 38 30 46 63 71 73 78 81 84 89 93 96 101 102 97 97 96 94 91 81 74 69 61 58 59 61 49 46 46 47 48 46 44 45 46 43 42 44 45 47 45 49 52 50 43 39 37 31 37 29 22 36 35 44 38 40 30 14 351 349 347 11 327 329 330 39 346 43 35 17 9 13 354 342
149 124 104 80 76 73 64 56 55 59 53 34 29 48 72 82 80 81 85 85 89 91 102 112 112 115 117 107 95 81 72 58 53 56 53 55 58 59 54 49 49 51 48 47 45 45 44 42 41 43 44 44 45 51 51 48 40 37 32 33 33 23 25 35 29 35 48 38 39 45 14 345 330 324 327 318 324 314 49 4 2 18 356 344 338
150 133 131 118 96 92 77 64 57 66 56 43 51 64 73 79 81 84 86 85 76 81 77 91 86 80 81 83 85 86 90 75 70 63 65 64 65 61 59 53 50 53 49 47 45 44 45 41 42 43 42 43 41 46 44 43 40 33 31 37 34 27 28 47 33 15 34 38 27 34 39 23 338 333 348 323 328 345 328 338 343 2 348 337 339
158 146 127 108 106 103 99 82 72 69 70 75 75 76 79 81 85 86 84 81 73 77 73 75 89 87 87 86 84 85 86 89 78 72 67 66 68 63 63 58 53 51 52 48 45 42 41 42 40 42 43 40 40 44 42 36 38 38 36 38 41 39 34 39 37 28 26 19 13 17 14 6 18 22 9 341 313 308 313 321 314 338 337 336 352
167 158 148 137 128 114 110 103 94 94 76 82 88 89 91 90 89 89 86 81 74 75 80 76 83 88 90 95 93 86 88 88 86 80 75 70 71 66 64 64 61 54 50 49 45 43 41 41 40 42 41 38 38 42 41 38 36 34 31 33 34 39 39 33 39 35 30 24 8 16 9 6 2 33 5 345 329 315 306 324 318 320 311 320 340
174 163 151 140 125 117 104 114 109 96 91 99 101 101 97 97 94 89 82 79 79 80 83 82 82 89 92 93 97 97 94 91 86 82 78 73 71 66 63 61 57 56 53 48 47 44 42 41 42 41 41 37 36 37 37 38 35 36 35 36 32 38 38 37 34 22 27 25 16 1 13 2 3 1 360 347 326 301 305 317 320 326 325 325 326
175 171 165 146 125 127 136 126 116 111 105 108 99 97 92 92 93 87 83 85 81 83 85 86 86 86 91 93 94 98 97 96 93 82 77 70 68 63 62 59 55 54 51 48 44 40 43 41 41 41 39 37 34 31 29 26 25 26 28 33 36 31 28 27 33 26 6 19 12 10 10 9 358 347 340 341 326 318 314 309 313 311 308 310 308
171 172 167 157 150 141 145 136 138 128 119 109 100 99 96 94 99 96 90 89 89 92 92 90 89 89 91 93 92 92 94 91 87 82 73 71 68 69 65 63 58 55 51 48 39 36 39 40 39 42 40 34 33 30 27 22 22 26 28 27 28 28 26 21 22 20 11 7 10 3 1 353 345 342 335 326 321 316 312 307 311 317 305 288 301
178 177 167 166 163 162 163 152 145 147 130 121 114 110 107 105 108 105 99 98 97 98 95 94 93 92 93 92 90 87 86 87 85 84 75 74 70 70 67 65 61 56 48 49 41 37 38 39 37 36 37 35 31 29 27 23 20 29 29 29 30 27 22 13 22 12 10 4 354 346 348 342 338 337 327 321 318 313 308 306 309 317 306 307 310
185 178 171 173 171 171 168 162 156 144 140 132 129 122 118 115 114 107 106 104 104 101 99 97 92 94 94 95 97 96 92 89 86 84 81 76 74 70 67 66 65 61 54 50 41 40 45 44 43 43 39 35 30 27 26 24 17 24 28 25 25 24 15 9 17 8 4 1 346 338 343 332 330 337 326 321 322 322 316 315 312 307 300 301 304
187 182 180 177 176 173 168 165 159 156 149 145 138 134 124 116 116 114 113 113 111 108 106 103 101 98 97 96 98 99 97 93 88 87 87 84 78 76 73 69 70 67 61 58 49 49 49 48 43 40 35 31 26 23 20 21 16 15 23 20 17 15 4 4 360 359 351 350 343 341 330 322 330 330 326 320 321 313 311 312 314 314 309 297 304
187 187 182 182 178 175 172 171 168 162 157 151 147 142 134 125 122 119 120 122 119 116 111 109 106 104 103 103 102 101 102 101 100 96 91 88 86 82 77 71 69 72 68 59 50 47 42 41 43 40 32 28 26 24 19 16 9 12 17 15 13 12 351 354 352 344 340 334 326 330 321 317 320 320 317 312 307 308 302 299 299 296 305 308 310
188 187 183 181 180 184 181 178 173 169 166 163 157 151 142 135 131 127 126 125 123 119 118 117 117 117 116 115 115 111 107 102 102 98 92 85 83 78 76 71 70 64 66 58 54 53 50 38 42 41 32 25 20 21 16 12 352 6 11 3 7 356 340 339 339 336 330 322 321 318 309 310 308 311 304 298 300 293 291 290 285 287 293 292 302
185 183 185 185 185 185 183 185 182 176 170 163 159 155 148 142 141 136 137 135 134 132 130 132 131 126 125 120 110 105 103 103 102 101 95 94 92 90 89 83 68 67 70 69 69 59 61 45 39 34 27 20 15 13 8 3 353 2 358 357 4 346 335 332 326 324 323 318 313 312 308 306 305 305 301 298 288 289 285 282 282 282 278 278 286
184 189 188 187 188 185 185 188 185 178 172 165 160 158 156 149 147 144 142 142 141 139 138 137 137 129 124 118 114 110 108 106 106 106 106 105 100 96 95 92 94 77 65 59 53 49 40 36 37 22 20 17 14 11 3 359 351 357 349 350 354 342 328 321 316 317 311 311 309 304 304 298 303 300 298 292 288 285 285 285 284 279 273 268 274
190 190 189 186 186 187 189 186 183 179 173 170 165 166 167 159 152 148 143 144 144 145 145 139 133 126 120 120 118 117 118 119 120 122 115 108 104 106 102 95 83 70 65 53 55 47 36 30 26 24 13 16 10 4 357 347 340 354 340 343 340 329 319 315 315 314 304 300 301 299 297 299 301 300 295 293 290 287 285 284 281 277 274 269 269
190 185 181 182 186 187 190 187 178 171 173 174 176 177 170 163 162 156 153 153 154 152 148 140 137 134 133 132 130 128 124 120 118 117 112 110 110 103 94 97 92 71 58 59 52 45 29 25 21 18 17 6 7 359 353 344 345 342 338 332 327 327 325 319 320 314 312 308 304 302 299 295 297 293 295 298 296 293 292 285 284 283 278 275 274
181 176 176 178 185 188 181 174 174 175 180 186 185 180 173 173 167 164 162 162 158 156 151 144 142 141 143 142 138 133 132 128 124 120 114 115 109 101 107 114 100 82 70 56 53 40 28 17 16 17 16 11 2 360 353 350 346 342 338 338 327 329 322 318 316 314 316 314 308 303 303 305 306 300 300 299 299 299 298 293 289 288 287 286 282
175 173 178 183 186 184 179 178 181 187 189 189 187 185 179 177 173 173 168 168 166 161 153 152 146 145 146 141 138 140 141 138 130 123 118 117 116 117 123 113 100 98 84 64 40 33 18 18 13 16 12 8 2 353 350 346 340 337 331 327 324 320 318 316 315 313 314 312 308 305 306 310 312 308 306 303 304 300 298 296 294 293 290 287 285
157 173 183 187 184 178 177 184 187 191 191 190 188 185 182 182 179 174 177 171 168 161 156 148 145 144 141 143 149 148 147 141 128 118 123 131 137 134 118 107 101 87 82 71 53 26 19 17 15 13 9 1 354 347 339 336 330 326 320 316 315 313 308 305 305 305 309 309 303 303 303 312 310 304 304 305 302 301 303 298 296 294 291 290 289
173 184 191 185 184 190 193 190 189 191 190 190 188 187 186 184 179 180 180 174 165 156 149 147 145 144 151 155 156 154 144 132 121 126 140 142 141 130 113 100 96 94 70 55 40 30 18 15 12 7 355 353 346 335 332 325 321 314 311 308 305 303 301 301 299 297 298 298 299 297 301 305 304 301 299 299 303 302 297 294 292 294 291 291 290
192 190 182 192 196 193 189 188 189 191 191 189 188 189 188 183 185 184 179 168 164 156 157 151 153 152 161 164 159 150 136 126 130 142 151 149 133 125 125 112 94 86 71 58 41 24 15 8 1 357 345 335 330 323 320 316 314 311 306 304 302 300 298 297 295 296 298 297 297 298 299 299 298 297 298 301 300 298 298 293 293 293 295 294 293
198 195 194 188 189 198 196 191 193 192 190 189 187 186 184 182 185 185 174 163 165 162 164 162 164 163 165 168 159 146 132 136 150 156 159 156 140 126 122 107 94 89 74 59 38 33 5 5 342 342 329 327 315 312 313 313 311 309 307 305 307 304 300 299 298 297 296 295 296 297 297 296 294 294 296 299 304 302 298 296 296 296 294 293 292
198 191 195 202 203 197 198 199 192 191 191 187 186 186 186 185 181 173 177 175 167 170 172 170 167 167 168 161 148 134 133 145 146 157 173 161 143 133 119 116 104 94 87 69 35 15 347 340 329 322 320 318 311 309 315 319 317 316 313 310 306 303 300 298 296 294 295 294 292 293 290 291 289 292 299 302 301 298 298 295 294 295 295 295 293
206 209 207 204 203 204 199 193 190 186 188 188 189 191 188 183 173 180 172 176 166 169 173 172 171 170 164 151 139 130 138 147 158 177 179 161 134 119 110 107 93 94 86 66 37 358 334 329 322 318 313 314 309 311 321 328 323 318 316 310 305 302 302 299 297 296 296 294 292 290 289 288 294 292 289 287 286 287 290 291 292 294 296 295 294
211 211 208 207 208 202 195 191 185 185 190 193 193 189 185 184 192 184 180 171 165 175 171 171 173 165 151 147 141 138 151 158 178 186 171 142 120 108 103 92 81 73 75 55 18 348 331 330 325 320 318 304 302 297 302 302 304 306 308 303 301 297 296 295 296 297 295 293 292 291 289 288 288 288 288 288 288 286 283 281 285 290 291 291 291
218 216 211 208 202 197 191 191 190 190 193 194 191 184 184 188 178 168 176 171 172 171 171 169 164 152 149 146 144 152 155 171 181 179 148 124 106 102 92 81 64 63 48 43 354 337 340 327 319 314 309 302 292 287 296 302 306 305 303 299 296 295 293 291 289 289 293 295 293 289 288 290 291 287 285 286 289 289 286 286 285 285 286 288 293
217 216 213 205 200 197 195 195 196 197 194 188 186 185 186 193 177 177 175 167 174 170 165 161 151 151 151 150 149 151 160 170 179 173 140 114 106 102 95 83 41 54 34 12 334 327 323 316 310 306 297 294 289 286 297 303 305 303 299 296 293 291 290 288 288 286 287 288 289 292 292 291 289 290 294 293 290 287 287 287 287 288 288 287 284
216 213 207 203 201 201 198 196 193 195 198 191 190 184 189 186 175 175 153 168 171 165 159 155 152 153 154 152 152 155 161 176 182 155 133 127 119 125 132 150 241 2 307 265 294 316 299 304 301 297 295 290 285 289 298 303 302 300 299 297 291 286 285 284 284 284 282 283 286 291 293 291 290 293 291 284 284 286 289 288 287 285 284 280 276
217 211 207 207 205 203 201 199 195 191 194 195 195 180 183 167 154 150 161 167 163 162 157 152 151 154 154 155 157 155 167 177 169 152 142 140 138 159 149 206 203 238 234 260 270 272 279 291 296 295 292 287 286 287 297 301 301 300 299 296 287 286 283 281 280 282 281 282 284 286 288 288 291 290 285 284 284 289 291 289 286 284 279 275 276
209 212 212 208 204 204 207 207 204 193 181 140 164 167 149 148 154 159 167 160 167 158 153 155 159 158 157 160 160 165 169 168 164 153 150 152 160 165 191 210 209 225 223 239 246 255 268 275 283 285 286 282 276 284 295 300 301 300 297 297 290 286 282 279 279 279 279 279 280 281 282 284 286 286 282 283 287 286 284 283 278 271 267 268 269
208 205 210 203 200 200 200 203 188 176 179 179 184 169 159 163 161 161 164 165 156 154 157 162 164 166 169 168 164 166 167 166 162 159 163 171 171 189 201 205 211 228 220 230 246 243 260 264 275 280 282 277 276 286 297 299 299 299 300 297 289 283 279 278 279 278 280 282 281 281 282 283 282 282 282 283 284 285 283 278 275 268 266 264 264
211 207 221 206 198 200 198 166 172 183 178 184 165 153 151 145 159 164 155 159 161 166 173 172 168 170 172 169 170 165 164 163 163 165 171 179 183 197 205 197 212 223 222 234 247 251 254 268 271 272 277 279 282 288 294 297 298 298 300 291 285 280 278 279 279 281 282 282 281 278 279 281 281 279 281 284 286 287 284 276 268 264 262 266 273
182 167 193 199 211 195 182 180 180 179 176 161 148 154 151 154 160 160 161 169 174 183 178 174 177 171 169 168 168 162 159 164 164 174 170 182 180 197 197 206 215 219 236 234 260 263 253 253 264 269 271 281 282 286 292 294 296 295 293 291 287 280 277 278 282 282 282 281 279 278 273 272 277 282 285 284 285 286 283 282 282 283 280 274 270
175 176 178 180 182 186 177 172 172 175 172 153 152 150 152 163 164 166 172 171 189 188 178 178 177 167 164 159 157 157 161 162 166 168 169 176 186 195 191 192 215 231 242 246 252 262 261 264 259 265 274 275 278 283 286 291 293 293 294 286 283 279 279 280 284 287 284 278 276 273 273 274 278 282 285 288 289 289 285 281 280 278 276 269 268
170 184 181 164 149 140 159 173 180 179 158 154 154 159 169 167 172 169 176 191 196 190 173 163 151 150 152 153 154 155 160 159 160 155 162 180 175 180 193 205 214 246 248 256 256 261 267 267 269 265 266 266 275 280 282 290 292 294 295 292 288 284 283 282 282 277 273 269 272 273 272 277 285 288 290 291 292 290 287 283 280 280 281 283 287
173 174 153 157 170 176 178 183 181 158 154 159 156 156 171 180 166 175 195 203 189 150 151 154 148 150 151 151 154 159 155 152 154 157 163 168 184 184 174 190 226 241 253 276 273 272 270 268 264 265 266 269 265 277 278 287 293 296 296 297 291 285 287 287 280 268 259 263 270 275 279 286 293 297 296 294 292 289 283 284 287 285 284 289 300
117 147 163 165 177 189 177 161 167 153 156 160 161 171 182 164 173 198 208 187 136 148 150 148 153 154 147 144 147 148 145 142 142 149 158 173 173 163 180 198 236 250 269 268 270 273 276 277 276 267 265 266 268 268 280 287 292 294 296 296 294 289 288 290 294 296 296 294 291 292 292 296 296 296 295 293 289 289 295 302 302 307 310 314 316
153 168 196 174 174 191 200 188 157 155 166 169 171 180 183 179 189 210 185 136 152 148 156 154 148 144 145 145 149 148 148 146 148 157 159 167 165 161 186 201 223 252 249 264 263 260 272 278 281 277 271 272 270 264 269 281 290 295 297 297 295 296 299 300 296 291 290 292 295 296 298 296 294 294 294 300 313 324 330 315 312 311 312 312 313
206 196 178 177 192 195 191 168 155 167 175 176 179 185 187 186 210 196 123 135 142 155 146 145 144 145 143 153 146 142 143 152 153 154 160 163 167 154 197 220 212 241 258 259 277 270 277 280 285 290 282 285 281 280 284 295 302 305 305 305 306 304 302 298 295 294 296 296 297 293 286 291 299 309 318 324 321 320 318 317 314 311 311 315 310
195 200 180 182 195 194 185 167 176 182 191 192 197 188 187 200 210 138 160 159 151 150 157 154 156 151 154 148 147 154 154 152 151 157 163 168 166 170 209 204 199 230 239 261 270 272 279 283 286 287 298 299 303 301 298 301 304 305 308 308 309 308 306 304 301 295 291 291 297 304 310 315 317 317 318 321 321 317 316 316 316 318 322 315 315
224 174 179 199 203 176 179 195 193 191 198 201 207 201 194 212 148 160 158 140 151 158 164 167 151 157 156 144 144 145 147 149 156 165 171 176 167 181 204 209 213 226 226 239 261 266 273 278 277 290 299 304 303 305 304 303 301 300 298 294 299 304 300 301 310 319 322 320 318 317 318 321 319 317 317 315 314 317 320 324 327 330 325 322 318
201 213 182 171 179 191 204 202 208 199 199 205 207 217 220 143 159 151 146 151 160 159 157 144 163 156 151 158 161 167 163 159 168 167 172 177 183 191 199 216 213 212 222 231 248 250 265 265 291 300 296 298 300 305 301 300 305 303 292 283 279 275 289 312 335 334 322 322 327 326 316 313 319 321 323 323 322 324 326 325 329 328 323 316 311
215 208 184 190 191 204 210 209 216 202 194 196 203 212 210 166 149 143 141 150 161 173 168 168 160 160 162 169 168 157 160 162 169 171 177 182 191 199 204 211 202 204 212 228 226 237 242 266 285 286 290 291 295 299 298 308 305 294 295 307 303 313 329 329 338 327 348 340 325 320 323 327 319 322 326 328 329 329 327 327 326 323 316 309 306
203 208 188 197 200 209 215 211 222 201 183 184 208 214 197 174 170 154 157 158 170 170 162 147 159 159 162 164 167 160 173 162 156 173 200 202 192 193 205 218 216 210 220 223 239 237 237 244 258 269 281 285 288 297 299 297 298 307 311 307 315 325 326 345 332 335 4 333 319 316 319 329 336 338 339 337 337 335 333 329 324 324 319 317 316
217 190 202 218 219 216 218 219 228 193 186 200 209 196 178 180 165 160 162 174 176 155 160 170 170 173 156 160 165 163 157 162 164 178 183 225 230 225 217 204 220 227 233 237 227 232 234 235 238 238 232 264 291 291 296 301 306 308 307 312 320 323 332 336 330 343 1 325 319 319 327 337 340 340 335 335 333 331 329 327 331 328 324 325 318
195 198 209 215 223 223 229 233 230 186 200 206 208 187 179 179 174 172 180 181 161 160 170 165 169 185 169 159 156 159 165 168 171 173 189 211 234 223 229 235 241 247 252 255 261 269 277 281 283 293 293 286 287 292 296 300 305 306 309 321 326 332 342 340 338 350 340 328 325 331 333 331 331 331 326 326 324 322 324 322 326 328 323 319 321